[[{"header":{"parameterUnit":"m.s-1","parameterCategory":1,"la1":30.2991,"la2":30.254,"lo1":-89.0895,"lo2":-89.0444,"dy":0.0017,"dx":0.0017,"nx":28,"ny":28,"refTime":"2025-04-05T03:00:00:Z","depth":0,"parameterNumber":2,"parameterNumberName":"U-component_of_WINDS"},"data":[0,0,0,0,0,0,0,0,0,0,0,0,0,0,0,0,0,0,0,0,0,0,0,0,0,0,0,0,0,0,0,0,0,0,0,0,0,0,0,0,0,0,0,0,0,0,0,0,0,0,0,0,0,0,0,0,0,0,2.97,2.97,0,2.9754,2.9755,2.9756,2.9706,2.9704,2.9702,2.97,2.9757,2.976,2.9764,0,0,0,0,0,0,0,0,0,0,0,0,0,2.9554,2.9557,2.97,2.97,2.9701,2.9754,2.9755,2.9756,2.9707,2.9704,2.9702,2.9699,2.9756,2.976,2.9764,0,0,0,0,0,0,0,0,0,0,0,0,0,2.9614,2.9558,2.97,2.9683,2.9682,2.9754,2.9755,2.9756,2.9707,2.9704,2.9701,2.9698,2.9755,2.9759,2.9764,2.9856,0,0,2.978,2.9782,0,0,0,0,0,0,0,0,2.9611,2.962,2.9685,2.9684,2.9683,2.972,2.9724,2.979,2.9708,2.9698,2.97,2.9697,2.9747,2.9753,2.977,2.9859,2.9861,2.978,2.9783,2.9786,2.9787,0,0,0,0,0,0,0,2.9607,2.9617,2.9721,2.9686,2.9685,2.9673,2.9678,2.9737,2.9739,2.9698,2.9695,2.9702,2.9746,2.9765,2.9771,2.9862,2.978,2.9785,2.9788,2.979,3.0031,3.0034,0,0,0,0,0,0,2.9604,2.9614,2.972,2.9723,2.9639,2.9678,2.9684,2.9712,2.9738,2.9739,2.9705,2.9699,2.9758,2.9765,2.9772,2.9882,2.9786,2.979,2.9793,3.0027,3.0031,3.0035,0,0,0,0,0,0,2.9601,2.9614,2.9717,2.9668,2.968,2.9684,2.9715,2.9714,2.9733,2.9743,2.9743,2.9723,2.9756,2.9765,2.9836,2.9884,2.9793,2.9797,3.0023,3.0028,3.0033,3.0102,0,0,0,0,0,0,2.9597,2.9613,2.9648,2.9669,2.9683,2.978,2.9718,2.9718,2.9742,2.9736,2.976,2.9761,2.9754,2.9829,2.9841,2.9889,2.9801,3.0019,3.0026,3.0032,3.0096,3.0109,3.0121,0,0,0,0,0,2.9592,2.9665,2.965,2.9663,2.9726,2.9783,2.9791,2.9781,2.9746,2.9781,2.9787,2.976,2.9876,2.9836,2.985,2.99,3.0016,3.0024,3.0031,3.009,3.0107,3.012,0,0,0,0,0,0,2.9649,2.9667,2.9651,2.9732,2.9756,2.9774,2.9818,2.9798,2.9833,2.9826,2.9812,2.9818,2.9893,2.9903,2.9858,2.9991,2.9941,2.9951,2.9981,2.9997,3.0009,3.0005,2.9805,0,0,0,0,0,2.9671,2.9716,2.9729,2.98,2.9813,2.9814,2.9838,2.9828,2.9853,2.9863,2.9874,2.99,2.9942,2.997,3.0009,3.0097,3.0103,3.0139,3.0151,3.0161,3.017,3.0219,3.0236,3.006,3.006,3.006,0,0,2.9717,2.9733,2.9761,2.9812,2.9829,2.9876,2.9822,2.9874,2.9909,2.987,2.9938,2.9948,2.9975,3.0055,3.0091,3.0067,3.022,3.0171,3.0179,3.0183,3.0229,3.0245,3.026,3.0065,3.0064,3.0063,0,0,2.9825,2.9841,2.9902,2.9921,2.9948,2.9948,2.9963,2.9985,2.999,3.0057,3.003,3.0072,3.0144,3.0165,3.0186,3.0303,3.028,3.0317,3.0381,3.0429,3.0443,3.0455,3.0498,3.0513,3.0326,3.0326,3.0326,0,2.9879,2.9948,2.9936,2.999,3.0013,2.9981,3.0044,3.0063,3.0102,3.0119,3.0091,3.0182,3.0198,3.0283,3.0312,3.033,3.0347,3.0313,3.0442,3.0454,3.0465,3.0506,3.0522,3.033,3.033,3.0329,3.0329,0,3.0013,3.0061,3.0108,3.0146,3.0175,3.0233,3.0231,3.0261,3.025,3.0253,3.0323,3.0342,3.0385,3.0404,3.0393,3.0489,3.0473,3.0443,3.0393,3.0486,3.0524,3.054,3.0336,3.0335,3.0334,3.0332,0,0,3.0157,3.019,3.0207,3.0225,3.0253,3.0291,3.0348,3.039,3.0417,3.0446,3.0494,3.0557,3.053,3.0553,3.0545,3.0587,3.068,3.0552,3.0553,3.0576,3.0788,3.081,3.0828,3.0665,3.0668,3.067,3.0786,0,3.0266,3.0365,3.0357,3.0451,3.0496,3.0467,3.0517,3.0541,3.0546,3.0586,3.0592,3.0637,3.0598,3.0612,3.0652,3.066,3.0722,3.0652,3.071,3.0713,3.0705,3.0848,3.0871,3.0979,3.08,3.0803,3.0805,0,3.0407,3.0441,3.0539,3.0562,3.0581,3.0626,3.0665,3.0703,3.073,3.0731,3.0757,3.0742,3.08,3.0749,3.083,3.0782,3.0806,3.0813,3.0817,3.0822,3.0764,3.0858,3.1013,3.103,3.0828,3.0826,3.0824,0,3.0503,3.0574,3.0642,3.0658,3.0686,3.0719,3.0732,3.0756,3.0782,3.0816,3.0834,3.0874,3.0897,3.0929,3.0925,3.0888,3.1008,3.0956,3.1011,3.1012,3.1038,3.1036,3.12,3.1053,3.1053,3.1052,3.1052,0,3.0627,3.0688,3.0686,3.0728,3.0797,3.0787,3.0855,3.0865,3.0886,3.0931,3.0908,3.095,3.0942,3.0985,3.0982,3.1051,3.1061,3.1064,3.1062,3.1066,3.1066,3.1081,3.1074,3.1057,3.1056,3.1055,3.1054,0,3.0746,3.0746,3.0819,3.0841,3.0847,3.0897,3.0916,3.0956,3.096,3.1016,3.1029,3.1035,3.1084,3.1083,3.1139,3.1137,3.1221,3.1211,3.1212,3.121,3.1266,3.1261,3.1446,3.147,3.1307,3.1308,3.131,0,3.0825,3.0871,3.0898,3.0926,3.0942,3.0987,3.1014,3.1006,3.1036,3.107,3.1107,3.1154,3.119,3.127,3.128,3.1323,3.1314,3.1376,3.132,3.1323,3.1316,3.1313,3.1318,3.1387,3.1388,3.139,3.1391,0,3.0965,3.0963,3.1002,3.1043,3.1076,3.1108,3.1137,3.1161,3.1157,3.1191,3.1241,3.127,3.1327,3.1374,3.1415,3.143,3.1411,3.1409,3.1424,3.1428,3.1427,3.1429,3.1242,3.1404,3.1403,3.1402,3.1401,3.1401,3.1066,3.1107,3.1133,3.1178,3.1199,3.1227,3.1266,3.1275,3.1317,3.1363,3.1356,3.1412,3.1439,3.1492,3.1511,3.1555,3.1533,3.1555,3.1561,3.1566,3.1573,3.142,3.1562,3.1562,3.1561,3.1561,3.1561,0,3.1206,3.1221,3.1263,3.1304,3.1341,3.1319,3.135,3.1382,3.1432,3.1458,3.1495,3.1553,3.1599,3.1613,3.1658,3.169,3.1683,3.1702,3.17,3.1704,3.1589,3.1572,3.1708,3.1708,3.1708,3.1708,3.1708,3.1708,3.1283,3.1351,3.1353,3.1432,3.1446,3.1501,3.1521,3.1547,3.1568,3.1634,3.1672,3.168,3.1702,3.1749,3.179,3.1793,3.1811,3.1835,3.1834,3.1727,3.1712,3.1698,3.1682,3.1839,3.1839,3.1946,3.1947,3.1947]},{"header":{"parameterUnit":"m.s-1","parameterCategory":1,"la1":30.2991,"la2":30.254,"lo1":-89.0895,"lo2":-89.0444,"dy":0.0017,"dx":0.0017,"nx":28,"ny":28,"refTime":"2025-04-05T03:00:00:Z","depth":0,"parameterNumber":3,"parameterNumberName":"V-component_of_WINDS"},"data":[0,0,0,0,0,0,0,0,0,0,0,0,0,0,0,0,0,0,0,0,0,0,0,0,0,0,0,0,0,0,0,0,0,0,0,0,0,0,0,0,0,0,0,0,0,0,0,0,0,0,0,0,0,0,0,0,0,0,-2.0391,-2.0392,0,-2.0518,-2.0519,-2.0521,-2.0546,-2.0545,-2.0544,-2.0543,-2.0674,-2.0678,-2.0682,0,0,0,0,0,0,0,0,0,0,0,0,0,-2.0172,-2.0175,-2.0391,-2.0392,-2.0394,-2.0518,-2.0519,-2.0521,-2.0546,-2.0545,-2.0544,-2.0543,-2.0672,-2.0678,-2.0683,0,0,0,0,0,0,0,0,0,0,0,0,0,-2.0279,-2.0177,-2.0391,-2.0421,-2.0425,-2.0517,-2.0519,-2.0522,-2.0546,-2.0545,-2.0543,-2.0542,-2.0671,-2.0677,-2.0684,-2.0754,0,0,-2.0704,-2.0707,0,0,0,0,0,0,0,0,-2.0273,-2.0287,-2.0415,-2.0419,-2.0424,-2.0515,-2.049,-2.0599,-2.0547,-2.05,-2.0543,-2.0541,-2.0622,-2.0633,-2.066,-2.076,-2.0766,-2.0704,-2.0708,-2.0711,-2.0713,0,0,0,0,0,0,0,-2.0266,-2.0282,-2.0441,-2.0417,-2.0422,-2.0429,-2.0443,-2.0511,-2.0568,-2.0504,-2.0507,-2.0521,-2.0624,-2.0653,-2.0663,-2.0767,-2.0704,-2.071,-2.0714,-2.0717,-2.0933,-2.0934,0,0,0,0,0,0,-2.0253,-2.0276,-2.0437,-2.0445,-2.0343,-2.0434,-2.045,-2.0487,-2.0567,-2.0578,-2.0522,-2.0522,-2.0643,-2.0655,-2.0668,-2.0756,-2.0711,-2.0717,-2.0721,-2.0931,-2.0933,-2.0935,0,0,0,0,0,0,-2.0248,-2.0267,-2.0432,-2.0361,-2.0382,-2.044,-2.0481,-2.049,-2.0519,-2.0581,-2.0591,-2.0541,-2.0642,-2.0658,-2.0732,-2.0761,-2.072,-2.0726,-2.0929,-2.0932,-2.0934,-2.0932,0,0,0,0,0,0,-2.0241,-2.0265,-2.0292,-2.0361,-2.0386,-2.0494,-2.0483,-2.0494,-2.0531,-2.0531,-2.0602,-2.0612,-2.0642,-2.0722,-2.0739,-2.0769,-2.0731,-2.0927,-2.093,-2.0933,-2.093,-2.0934,-2.0938,0,0,0,0,0,-2.0233,-2.0286,-2.0293,-2.0312,-2.0421,-2.0496,-2.051,-2.0544,-2.0533,-2.0561,-2.06,-2.061,-2.0755,-2.073,-2.0749,-2.0781,-2.0925,-2.0929,-2.0933,-2.0928,-2.0933,-2.0938,0,0,0,0,0,0,-2.0219,-2.0296,-2.0304,-2.0381,-2.0432,-2.05,-2.0536,-2.0548,-2.0603,-2.0601,-2.0641,-2.0657,-2.0729,-2.0762,-2.0733,-2.0854,-2.0839,-2.0847,-2.0829,-2.0835,-2.0839,-2.0829,-2.0737,0,0,0,0,0,-2.0224,-2.0278,-2.0343,-2.0404,-2.0429,-2.0478,-2.0512,-2.0534,-2.0588,-2.0609,-2.0654,-2.0707,-2.0764,-2.0801,-2.0858,-2.0935,-2.0951,-2.0966,-2.097,-2.0973,-2.098,-2.1024,-2.1032,-2.0948,-2.0948,-2.0948,0,0,-2.0237,-2.0286,-2.0317,-2.0403,-2.0444,-2.05,-2.0496,-2.0555,-2.0596,-2.0618,-2.0691,-2.0726,-2.0787,-2.0863,-2.0899,-2.0893,-2.1007,-2.0979,-2.0981,-2.0986,-2.1029,-2.1037,-2.1044,-2.0951,-2.095,-2.095,0,0,-2.0288,-2.033,-2.0386,-2.0428,-2.0491,-2.0523,-2.0536,-2.0603,-2.0627,-2.0701,-2.0718,-2.0769,-2.0867,-2.091,-2.0944,-2.1012,-2.1023,-2.1029,-2.1051,-2.1093,-2.11,-2.1106,-2.113,-2.1139,-2.1035,-2.1035,-2.1035,0,-2.0295,-2.0379,-2.0413,-2.0471,-2.0509,-2.0531,-2.0588,-2.0627,-2.0706,-2.0731,-2.0724,-2.0848,-2.089,-2.0977,-2.0994,-2.1021,-2.1038,-2.1021,-2.1096,-2.1102,-2.1109,-2.1133,-2.1142,-2.1036,-2.1036,-2.1036,-2.1036,0,-2.0385,-2.0443,-2.0481,-2.0556,-2.0597,-2.0655,-2.0698,-2.0736,-2.0754,-2.0787,-2.0862,-2.0914,-2.0982,-2.1004,-2.1022,-2.1094,-2.1088,-2.1088,-2.1074,-2.1116,-2.114,-2.1149,-2.1036,-2.1036,-2.1036,-2.1036,0,0,-2.043,-2.0523,-2.0537,-2.0571,-2.0643,-2.0689,-2.0747,-2.0813,-2.0845,-2.0898,-2.0949,-2.1032,-2.1032,-2.1071,-2.1095,-2.1132,-2.1183,-2.1127,-2.1129,-2.1136,-2.1265,-2.1265,-2.1275,-2.119,-2.1192,-2.1193,-2.126,0,-2.049,-2.0595,-2.0628,-2.0716,-2.077,-2.0792,-2.0843,-2.0893,-2.0926,-2.0977,-2.1013,-2.1071,-2.1067,-2.1091,-2.1128,-2.1168,-2.1209,-2.1164,-2.1238,-2.124,-2.1222,-2.1287,-2.1287,-2.1348,-2.1269,-2.1271,-2.1272,0,-2.0574,-2.0628,-2.0722,-2.0787,-2.0811,-2.0856,-2.0919,-2.0968,-2.1025,-2.1046,-2.109,-2.111,-2.1173,-2.1155,-2.1243,-2.1211,-2.1243,-2.1268,-2.1271,-2.1279,-2.1259,-2.1298,-2.1368,-2.1377,-2.1287,-2.1285,-2.1284,0,-2.0598,-2.0695,-2.0763,-2.0792,-2.0869,-2.0901,-2.0935,-2.099,-2.1028,-2.1083,-2.1108,-2.117,-2.1204,-2.1252,-2.1288,-2.1272,-2.1373,-2.1358,-2.1392,-2.1392,-2.1413,-2.1411,-2.1489,-2.1433,-2.1433,-2.1432,-2.1432,0,-2.0661,-2.0718,-2.0775,-2.0817,-2.0881,-2.0919,-2.0981,-2.1016,-2.1065,-2.1115,-2.1138,-2.1184,-2.123,-2.1282,-2.1311,-2.1379,-2.1395,-2.1414,-2.1421,-2.1412,-2.141,-2.1434,-2.1431,-2.1435,-2.1434,-2.1434,-2.1433,0,-2.0699,-2.074,-2.0816,-2.0883,-2.0901,-2.0946,-2.1003,-2.1045,-2.1079,-2.1141,-2.1158,-2.1211,-2.1274,-2.1315,-2.1396,-2.1415,-2.149,-2.1496,-2.1471,-2.1474,-2.1506,-2.1503,-2.1603,-2.1619,-2.1551,-2.1552,-2.1552,0,-2.0737,-2.0781,-2.0853,-2.0888,-2.0922,-2.0977,-2.1016,-2.1054,-2.1094,-2.1162,-2.1196,-2.126,-2.1314,-2.1414,-2.146,-2.1521,-2.1529,-2.156,-2.1539,-2.1528,-2.153,-2.1527,-2.1532,-2.1564,-2.1564,-2.1565,-2.1565,0,-2.0801,-2.0819,-2.0873,-2.0935,-2.098,-2.1031,-2.1081,-2.1108,-2.1156,-2.1199,-2.1263,-2.1305,-2.1387,-2.1451,-2.1517,-2.1552,-2.1567,-2.1571,-2.1583,-2.1574,-2.1558,-2.1568,-2.148,-2.1569,-2.1569,-2.1568,-2.1568,-2.1568,-2.0841,-2.0881,-2.0938,-2.0998,-2.104,-2.1086,-2.1129,-2.1168,-2.1222,-2.1292,-2.1312,-2.1379,-2.1436,-2.1526,-2.1562,-2.1616,-2.1613,-2.1629,-2.1633,-2.1637,-2.1637,-2.1549,-2.1628,-2.1628,-2.1628,-2.1628,-2.1628,0,-2.0906,-2.0943,-2.0998,-2.1068,-2.1115,-2.1124,-2.1181,-2.122,-2.1279,-2.133,-2.1383,-2.1457,-2.1519,-2.157,-2.1634,-2.1667,-2.1676,-2.1683,-2.1681,-2.1689,-2.1636,-2.162,-2.1675,-2.1675,-2.1675,-2.1675,-2.1675,-2.1675,-2.0945,-2.1014,-2.1039,-2.1129,-2.1166,-2.1232,-2.1264,-2.1307,-2.1348,-2.143,-2.1482,-2.1514,-2.1566,-2.1634,-2.1692,-2.1705,-2.1728,-2.1734,-2.1749,-2.1698,-2.1693,-2.1688,-2.1673,-2.1738,-2.1738,-2.1797,-2.1798,-2.1798]}]]